Flag for Germany Weather past 2 weeks in Minden, North Rhine-Westphalia, Germany

Now
70 °F

Passing clouds.


Feels Like: 70 °F
Forecast: 58 / 79 °F
Wind: 6 mph from Northwest

Location: Bueckeburg

Current Time: Jul 31, 2014 at 1:16:40 PM

Latest Report: Jul 31, 2014 at 12:20 PM


Visibility: N/A

Pressure: 30.01 "Hg

Humidity: 57%

Dew point: 54 °F

Location of MindenLocation

Historic Weather in Minden — Graph

°F

Minden temperature yesterday

Maximum temperature yesterday: 73 °F (at 4:20 PM)
Minimum temperature yesterday: 64 °F (at 5:20 AM)
Average temperature yesterday: 68 °F

Past Weeks' High & Low Weather Summary

 TemperatureHumidityPressure
High91 °F (Jul 19, 4:20 PM)100% (Jul 21, 7:20 AM)30.18 "Hg (Jul 21, 7:20 AM)
Low57 °F (Jul 17, 3:20 AM)28% (Jul 19, 4:20 PM)29.74 "Hg (Jul 29, 6:20 PM)
Average71 °F71%29.96 "Hg
* Reported Jul 16 11:20 AM — Jul 31 11:20 AM, Minden, Weather by CustomWeather, © 2014

Note: Actual official high and low records may vary slightly from our data, if they occured in-between our weather recording intervals... More about our weather records

Advertising

Minden weather history for previous 24 hours

 ConditionsComfort  
Time TempWeatherWind HumidityBarometerVisibility
11:20 AM
Jul 31
68 °FPassing clouds.6 mph64%30.01 "HgN/A
10:20 AM66 °FPassing clouds.5 mph68%30.01 "HgN/A
9:20 AM64 °FScattered clouds.8 mph73%30.01 "HgN/A
8:20 AM63 °FPassing clouds.7 mph77%29.98 "HgN/A
7:20 AM61 °FPassing clouds.3 mph88%29.98 "HgN/A
6:20 AM59 °FPassing clouds.2 mph88%29.98 "HgN/A
5:20 AM59 °FFog.5 mph88%29.98 "HgN/A
4:20 AM61 °FPassing clouds.5 mph88%29.98 "HgN/A
3:20 AM63 °FPassing clouds.1 mph83%29.95 "HgN/A
2:20 AM63 °FPassing clouds.5 mph83%29.95 "HgN/A
1:20 AM64 °FPassing clouds.5 mph78%29.95 "HgN/A
12:20 AM66 °FPassing clouds.5 mph68%29.95 "HgN/A
11:20 PM
Jul 30
66 °FPassing clouds.2 mph73%29.92 "HgN/A
10:20 PM66 °FPassing clouds.3 mph73%29.92 "HgN/A
9:20 PM70 °FPartly sunny.6 mph57%29.89 "HgN/A
8:20 PM70 °FPartly sunny.8 mph57%29.89 "HgN/A
7:20 PM73 °FPartly sunny.6 mph57%29.86 "HgN/A
6:20 PM73 °FPartly sunny.7 mph57%29.86 "HgN/A
5:20 PM73 °FPartly sunny.7 mph57%29.86 "HgN/A
4:20 PM73 °FBroken clouds.10 mph57%29.86 "HgN/A
3:20 PM72 °FBroken clouds.9 mph65%29.86 "HgN/A
2:20 PM70 °FBroken clouds.8 mph69%29.86 "HgN/A
1:20 PM70 °FBroken clouds.9 mph69%29.86 "HgN/A
Weather by CustomWeather, © 2014

See weather overviewHow to use our weather pages